Temperature
18 18 17 17 16 16 16 16 16 15 15 15 15 15 15 15 15 15 15 15 15 15 15 15 14 14 14 14 13 13 13 12 12 11 11 11 11 11 12 11 11 11 11
17 17 17 16 16 16 16 16 16 16 15 15 15 15 15 15 16 16 16 15 15 15 15 14 14 14 13 13 13 13 12 12 12 11 11 11 11 11 11 11 11 11 11
17 16 16 15 15 15 15 15 15 15 15 15 15 15 15 15 15 16 16 16 15 15 14 14 14 13 13 13 13 12 12 12 12 11 11 11 11 12 11 11 11 11 10
15 15 15 14 14 14 15 15 15 15 15 15 15 15 15 15 15 15 16 16 15 15 14 14 13 13 13 12 12 12 12 12 11 11 11 11 11 11 11 11 11 10 10
14 14 14 13 13 13 14 14 14 14 15 15 14 14 14 14 14 14 14 14 14 14 14 13 13 13 12 12 12 12 11 11 11 11 11 11 10 10 11 11 10 10 10
13 12 12 12 12 12 13 13 13 14 14 14 14 14 14 14 14 13 13 13 13 13 13 13 12 12 12 12 11 11 11 11 11 11 11 11 10 10 10 10 10 10 9
12 12 11 11 11 11 12 12 13 13 13 13 13 13 13 13 13 13 13 13 12 12 12 12 12 12 11 11 11 11 11 11 11 10 10 10 10 10 10 9 9 9 8
12 11 11 10 10 11 11 11 12 12 12 12 12 12 12 12 12 12 12 12 12 12 12 11 11 11 11 11 11 10 10 10 10 10 10 10 9 9 9 9 8 8 7
11 11 10 10 10 10 10 11 11 11 11 11 11 12 12 11 11 11 11 11 11 11 11 11 11 10 10 10 10 10 10 10 10 10 9 9 9 9 8 8 7 7 6
11 10 9 9 9 9 10 10 10 10 10 10 11 11 10 10 10 10 10 10 10 10 10 10 10 10 9 9 9 9 9 9 9 9 9 8 8 8 7 7 7 6 5
10 10 9 9 9 9 9 9 9 9 9 9 9 9 9 9 9 9 9 9 9 9 9 9 9 9 9 8 8 8 8 8 8 8 8 8 7 7 6 6 5 5 4
10 9 9 8 8 8 8 8 8 8 8 8 8 8 8 8 8 8 8 8 8 8 8 8 8 8 8 7 7 7 7 7 7 7 7 6 6 6 5 5 4 4 3
9 9 8 8 7 7 7 7 7 8 7 7 7 7 7 7 7 7 7 7 7 7 7 7 7 7 7 7 7 6 6 6 6 6 5 5 5 4 4 3 3 2 2
9 8 8 7 7 7 7 7 7 7 7 6 6 7 7 7 6 6 6 6 6 6 6 6 6 6 6 6 5 5 5 5 5 4 4 4 3 3 2 2 1 1 1
9 8 7 7 6 6 6 6 6 6 6 6 6 6 6 5 5 5 5 5 5 5 5 5 5 5 5 5 4 4 4 4 3 3 2 2 2 1 1 1 0 -0 -0
9 8 7 6 6 5 5 5 5 5 5 5 5 5 5 5 5 5 4 4 4 4 4 4 4 4 4 3 3 3 3 2 2 2 1 1 0 -0 -0 -1 -1 -1 -2
8 7 6 6 5 5 5 4 4 4 4 4 4 4 4 4 4 4 4 4 3 3 3 3 3 3 2 2 2 2 2 1 1 0 0 -0 -1 -1 -1 -2 -2 -2 -3
8 7 6 5 5 4 4 4 3 3 3 4 3 3 3 3 3 3 3 3 3 2 2 2 2 1 1 1 1 1 0 0 -0 -1 -1 -1 -1 -2 -2 -2 -2 -3 -3
7 6 6 5 4 4 4 3 3 3 3 3 3 3 3 3 2 2 2 2 1 1 1 1 0 0 0 0 -0 -0 -1 -1 -1 -2 -2 -2 -2 -2 -3 -3 -3 -4 -4
6 6 5 4 4 3 3 3 3 3 3 2 2 2 2 2 2 1 1 1 1 0 0 0 -0 -0 -1 -1 -1 -1 -1 -2 -2 -2 -2 -3 -3 -3 -4 -4 -4 -5 -5
5 5 4 4 3 3 2 2 2 2 2 2 2 1 1 1 1 1 0 0 -0 -0 -0 -0 -1 -1 -1 -1 -1 -2 -2 -2 -3 -3 -3 -4 -4 -4 -4 -5 -5 -5 -6
5 4 4 3 3 3 2 2 2 2 2 1 1 1 1 1 0 0 -0 -0 -0 -0 -1 -1 -1 -2 -2 -2 -2 -2 -3 -3 -3 -4 -4 -4 -4 -5 -5 -5 -5 -6 -6
4 4 3 3 3 2 2 2 2 1 1 1 1 1 0 0 -0 -0 -0 -0 -1 -1 -1 -1 -2 -2 -2 -2 -3 -3 -3 -4 -4 -4 -4 -5 -5 -5 -5 -5 -6 -6 -6
4 3 3 3 2 2 2 1 1 1 1 1 1 0 0 0 -0 -0 -1 -1 -1 -1 -1 -1 -2 -2 -3 -3 -3 -3 -3 -4 -4 -4 -5 -5 -5 -5 -6 -6 -6 -6 -6
4 3 3 3 2 2 2 1 1 1 1 1 0 0 0 0 -0 -0 -1 -1 -1 -1 -1 -2 -2 -2 -3 -3 -4 -4 -4 -4 -5 -5 -5 -5 -5 -6 -6 -6 -6 -6 -7
3 3 3 2 2 2 1 1 1 1 1 1 0 0 0 0 0 -0 -0 -1 -1 -1 -2 -2 -2 -3 -3 -3 -4 -4 -4 -5 -5 -5 -6 -6 -6 -6 -6 -7 -7 -7 -7
Wind_Speed
6 5 5 5 5 5 5 5 7 8 7 6 6 6 6 5 5 5 8 11 12 13 11 5 6 6 7 8 8 6 6 5 4 3 2 2 3 5 5 5 5 8 14
5 4 4 3 3 4 3 3 4 5 6 5 5 5 4 4 5 5 6 10 10 11 10 8 8 8 7 8 9 7 6 5 6 5 3 3 4 5 6 5 6 6 10
5 5 5 4 3 2 2 1 2 2 3 4 3 2 3 3 4 5 7 8 10 10 10 9 7 8 8 8 9 9 10 7 7 5 5 5 6 4 4 7 6 6 5
2 2 3 4 4 2 2 1 1 1 1 2 3 4 4 5 6 5 6 7 9 10 11 10 9 9 8 9 9 10 8 8 7 5 5 4 3 4 3 2 4 5 4
3 3 4 4 4 4 3 2 2 2 1 0 2 3 4 5 4 4 5 6 7 9 10 10 9 10 9 9 9 9 9 9 8 6 4 5 3 2 4 4 3 3 3
5 5 4 4 4 4 3 2 2 2 2 2 2 2 3 4 4 5 5 5 4 5 8 8 8 9 9 9 9 9 10 10 9 8 6 5 4 6 5 4 3 4 3
6 6 6 5 5 4 3 1 2 2 2 2 2 3 3 4 5 5 5 5 4 3 5 6 7 7 7 7 7 8 8 9 9 9 7 7 5 3 4 4 3 3 1
5 6 6 5 5 5 3 3 2 2 3 3 3 3 3 2 3 4 4 4 3 3 2 3 4 5 5 5 6 6 6 5 7 7 6 4 4 4 4 4 4 3 2
6 6 6 6 5 5 5 4 4 4 4 5 4 4 4 3 3 4 3 3 2 2 1 1 1 2 2 3 4 4 4 4 4 4 4 3 2 2 2 3 3 5 5
6 6 6 5 5 5 4 4 4 5 5 5 4 4 5 5 4 3 3 3 2 2 1 1 0 1 1 1 2 2 2 3 3 3 4 4 4 3 3 3 2 2 3
6 5 5 5 4 4 4 4 5 5 5 5 5 5 5 6 5 4 4 4 3 3 2 2 1 1 1 2 2 2 3 4 4 4 5 5 6 5 4 3 3 2 2
5 5 5 4 4 4 4 4 5 5 5 5 5 5 6 6 7 7 7 6 5 5 5 5 5 5 5 5 4 4 5 5 5 6 6 6 5 6 4 3 4 3 2
5 5 4 4 4 4 4 4 5 5 5 5 5 6 6 7 7 7 7 8 8 8 8 8 8 8 7 7 7 7 7 7 6 6 7 6 7 6 4 4 4 3 2
5 5 4 4 4 4 4 4 5 5 5 5 6 6 7 7 7 7 8 8 8 8 9 9 9 8 8 8 8 9 9 9 8 7 7 7 6 6 5 4 3 3 2
5 5 4 4 4 3 4 4 4 4 5 5 6 6 6 6 7 7 8 8 8 9 8 9 9 8 8 8 9 9 9 9 9 8 7 7 7 6 4 3 2 2 1
5 5 5 4 4 4 3 4 4 4 5 6 6 6 6 7 7 7 8 8 9 9 9 9 9 9 8 12 13 10 8 8 8 7 6 6 6 5 5 4 2 1 1
5 5 4 4 4 4 3 3 4 5 5 6 6 6 6 7 7 7 8 8 8 9 9 9 9 9 10 13 14 13 9 8 7 6 5 4 4 5 3 2 2 2 3
5 5 5 5 5 5 4 4 5 5 5 5 6 6 6 6 7 7 8 8 7 8 8 8 8 8 10 13 13 12 8 6 6 5 4 4 3 3 2 2 2 2 3
5 5 5 5 5 5 5 5 5 5 5 5 5 5 6 6 7 7 7 6 7 7 7 6 7 8 8 11 10 9 5 5 5 4 3 3 2 1 2 2 3 3 4
5 5 5 5 5 4 5 6 5 6 5 5 5 5 6 6 7 7 6 6 6 6 6 6 6 7 6 9 9 8 4 4 3 2 1 1 1 3 4 2 3 4 4
5 5 5 4 4 5 5 6 6 5 5 5 5 6 6 6 6 6 5 5 5 5 6 6 6 6 6 7 8 7 4 3 2 2 1 1 3 5 7 6 3 6 5
5 5 5 5 5 5 5 6 6 6 6 6 6 6 5 5 5 6 5 4 5 5 5 5 4 4 4 5 5 6 5 4 2 1 1 2 5 7 8 6 6 8 7
5 5 5 6 5 4 5 7 6 6 7 6 6 6 6 5 5 5 5 4 3 4 3 3 3 2 2 3 4 4 4 5 2 2 4 6 7 7 6 7 8 6 3
5 6 6 6 5 5 5 6 7 7 7 7 6 5 5 5 4 3 3 3 3 3 3 3 2 2 1 2 2 2 3 4 3 3 5 7 7 6 6 6 5 3 3
5 6 6 6 6 6 6 7 7 8 7 7 6 5 5 5 4 4 3 4 3 3 3 2 2 2 1 0 2 2 2 2 3 4 3 3 3 3 3 3 3 3 3
6 6 6 6 7 7 7 7 7 8 8 7 6 5 4 4 4 4 4 7 5 6 6 5 4 2 1 1 2 4 5 6 7 4 3 3 3 3 3 4 4 4 4
Wind_Direction
205 181 175 177 175 183 195 195 189 191 186 185 191 197 207 208 210 215 215 211 207 205 201 198 199 197 197 193 187 182 192 196 169 155 198 253 221 203 204 199 189 181 180
191 176 163 161 166 172 181 203 202 192 187 187 190 193 194 207 210 208 220 224 218 212 209 205 204 202 201 198 195 188 186 193 177 161 150 220 253 248 217 199 203 194 184
199 177 167 155 134 129 151 201 229 207 185 175 176 182 193 205 211 214 217 221 225 225 218 213 210 207 205 208 204 196 191 196 196 183 170 181 213 218 225 212 201 194 184
195 157 135 126 120 99 61 21 325 301 190 173 177 188 205 216 222 222 221 217 219 224 224 219 214 215 212 213 211 205 202 190 197 209 219 213 169 168 203 250 213 190 182
153 118 97 95 90 80 54 18 350 340 346 286 205 207 226 232 240 241 238 229 223 222 224 221 217 219 218 217 214 210 208 204 199 194 195 221 233 202 169 204 222 215 200
124 118 113 112 103 94 69 31 6 355 356 344 310 253 248 250 259 263 257 249 239 228 225 225 224 223 220 219 218 216 214 214 209 204 194 185 193 204 198 194 185 204 214
141 141 139 134 119 108 95 63 38 8 359 342 320 298 276 263 254 257 260 263 255 243 234 228 228 227 226 223 220 217 219 216 212 210 208 203 203 177 185 194 178 165 161
130 123 116 109 105 97 80 58 43 25 17 6 343 334 323 297 282 276 273 271 265 255 254 238 233 230 223 224 220 220 219 214 214 212 202 195 192 179 173 176 168 163 177
124 118 108 96 88 80 65 50 39 34 27 13 3 358 351 339 313 303 299 292 292 294 290 272 245 233 223 217 208 214 209 199 202 195 180 169 146 136 143 144 166 175 195
123 114 104 93 83 76 64 49 41 39 29 18 12 10 2 354 345 344 336 328 327 337 336 317 239 209 193 181 175 176 166 157 155 146 141 132 119 109 104 112 111 151 183
119 112 105 96 89 77 63 51 41 39 30 25 23 19 14 7 3 7 9 14 18 22 35 42 60 72 73 96 115 128 132 139 127 119 124 121 116 116 106 102 106 97 116
113 112 111 103 91 77 63 52 43 41 32 27 33 30 24 23 28 30 27 31 38 41 45 53 60 63 63 66 80 92 97 109 113 111 113 114 112 107 104 104 99 99 92
130 123 114 104 89 75 64 57 54 45 35 34 42 43 37 39 40 37 37 44 50 52 54 59 62 63 66 69 72 80 84 87 93 102 109 110 112 108 104 102 101 101 100
136 131 116 103 95 79 67 64 58 47 43 48 53 51 47 47 48 47 47 50 56 60 61 64 65 67 70 73 77 82 85 86 85 87 95 102 108 112 115 113 121 127 123
141 136 127 116 109 95 82 73 67 55 56 62 62 59 57 55 56 56 55 57 61 65 66 69 68 68 71 78 86 88 91 91 88 82 82 88 101 112 112 112 119 115 116
151 140 132 129 122 111 98 89 79 69 72 73 69 66 66 65 63 62 63 65 65 66 69 70 72 71 77 89 91 93 89 91 92 91 86 93 95 100 99 109 128 145 158
142 139 137 129 120 115 109 107 98 85 81 79 74 73 76 75 71 73 71 69 70 71 72 73 75 77 83 88 90 91 91 89 90 93 92 87 85 76 61 45 22 329 294
126 125 124 120 116 113 109 103 98 95 93 87 84 84 85 86 84 81 78 76 75 76 77 77 80 83 84 87 88 88 86 87 84 81 80 80 72 75 58 13 342 302 293
112 115 117 120 117 121 122 113 107 102 96 91 89 92 97 98 93 88 83 82 84 82 80 81 84 87 86 85 83 80 80 81 78 75 75 75 60 24 346 337 311 304 299
99 106 109 115 122 125 123 119 117 110 104 100 97 98 101 103 100 98 96 93 94 95 93 85 81 86 86 83 77 71 73 74 70 63 71 72 23 333 326 327 320 309 304
110 116 122 125 126 124 125 124 118 115 113 110 105 102 102 105 106 102 99 100 97 93 90 87 80 81 87 80 73 63 60 59 53 34 13 334 332 326 321 321 311 294 302
133 136 135 128 122 126 131 129 128 125 121 119 114 110 110 113 116 114 109 107 107 103 98 94 85 75 78 82 69 55 46 39 38 4 353 332 326 324 321 317 307 309 317
154 149 145 137 134 133 135 137 138 135 130 125 122 122 119 118 124 126 129 126 117 113 111 107 104 91 75 71 63 42 26 16 14 343 332 325 322 323 321 314 315 320 318
161 158 156 153 154 146 139 140 141 141 137 135 135 137 135 133 125 119 123 120 114 111 113 114 115 108 85 65 37 10 0 357 354 344 324 320 316 313 305 309 314 300 271
164 165 168 168 163 155 151 147 149 148 146 146 149 152 147 138 123 101 87 104 87 118 126 124 120 120 128 18 10 7 358 346 321 330 321 313 316 322 319 314 307 305 308
170 172 176 173 164 160 159 159 159 158 158 158 159 155 149 143 137 128 99 85 105 96 97 105 109 95 117 20 346 335 329 324 321 329 316 312 316 315 314 315 315 314 311
Height
1485 1487 1489 1492 1494 1496 1499 1501 1503 1505 1507 1509 1511 1513 1515 1518 1520 1521 1523 1524 1525 1527 1528 1529 1530 1531 1532 1534 1535 1536 1538 1539 1541 1542 1542 1542 1542 1542 1543 1544 1544 1543 1543
1481 1483 1486 1488 1490 1492 1495 1497 1499 1501 1503 1505 1507 1509 1511 1513 1515 1517 1518 1520 1521 1522 1523 1524 1525 1526 1527 1529 1530 1531 1532 1533 1535 1536 1537 1537 1538 1536 1536 1537 1538 1538 1538
1478 1480 1482 1484 1486 1488 1490 1493 1495 1497 1499 1501 1503 1505 1507 1508 1510 1511 1513 1514 1515 1516 1517 1518 1519 1520 1522 1522 1524 1525 1526 1527 1529 1530 1531 1530 1528 1529 1530 1530 1531 1532 1532
1475 1477 1479 1480 1482 1484 1486 1488 1491 1493 1495 1497 1498 1500 1501 1502 1504 1506 1507 1508 1509 1510 1511 1512 1513 1514 1515 1516 1518 1519 1520 1521 1521 1523 1523 1525 1525 1525 1523 1524 1524 1525 1525
1472 1474 1475 1477 1479 1480 1482 1484 1486 1488 1490 1492 1493 1495 1496 1497 1499 1500 1501 1502 1503 1504 1505 1506 1507 1508 1509 1510 1511 1512 1513 1514 1514 1515 1516 1517 1519 1519 1519 1518 1518 1518 1518
1470 1471 1473 1475 1476 1477 1479 1481 1482 1484 1486 1487 1489 1490 1491 1492 1493 1494 1495 1496 1497 1497 1498 1499 1500 1501 1502 1503 1504 1505 1506 1507 1508 1508 1509 1510 1511 1511 1512 1511 1511 1511 1512
1468 1470 1472 1473 1473 1474 1476 1477 1479 1480 1481 1483 1484 1485 1486 1487 1487 1488 1489 1490 1490 1491 1492 1493 1493 1494 1495 1496 1498 1499 1499 1500 1501 1501 1501 1502 1503 1504 1505 1505 1504 1504 1505
1468 1469 1470 1471 1472 1472 1474 1475 1476 1477 1478 1478 1479 1480 1481 1481 1482 1482 1483 1483 1484 1485 1485 1486 1486 1487 1488 1489 1490 1491 1492 1493 1494 1494 1495 1495 1496 1497 1497 1498 1499 1497 1498
1467 1469 1469 1470 1471 1471 1472 1473 1473 1474 1474 1475 1475 1476 1476 1476 1476 1477 1477 1477 1478 1478 1479 1479 1480 1481 1482 1482 1483 1484 1484 1486 1486 1487 1488 1489 1489 1489 1490 1490 1491 1492 1491
1467 1468 1468 1469 1469 1470 1470 1471 1471 1471 1471 1472 1472 1472 1472 1472 1472 1472 1472 1472 1472 1472 1472 1473 1473 1474 1475 1476 1477 1477 1478 1479 1479 1480 1481 1482 1482 1483 1483 1483 1484 1484 1486
1466 1467 1467 1468 1468 1468 1468 1469 1469 1469 1469 1469 1468 1468 1468 1468 1468 1467 1467 1467 1467 1467 1467 1467 1468 1468 1469 1470 1470 1471 1472 1472 1473 1474 1475 1476 1476 1477 1478 1478 1478 1479 1480
1464 1466 1466 1467 1467 1467 1467 1467 1466 1466 1466 1466 1465 1465 1465 1464 1464 1463 1463 1463 1463 1463 1463 1463 1463 1463 1464 1465 1465 1466 1467 1467 1468 1469 1469 1470 1471 1472 1473 1474 1474 1475 1475
1463 1464 1465 1465 1465 1465 1465 1465 1464 1464 1464 1463 1463 1463 1462 1462 1461 1461 1460 1460 1460 1459 1459 1459 1459 1460 1460 1461 1461 1462 1463 1463 1464 1465 1465 1466 1467 1468 1469 1470 1471 1471 1472
1462 1463 1463 1463 1463 1463 1463 1462 1462 1462 1462 1461 1461 1460 1460 1459 1459 1458 1458 1458 1458 1457 1457 1457 1458 1458 1458 1458 1459 1459 1460 1461 1461 1462 1463 1463 1465 1465 1466 1467 1467 1468 1469
1460 1461 1461 1461 1461 1461 1461 1461 1460 1460 1460 1460 1459 1459 1458 1458 1458 1457 1457 1457 1457 1456 1456 1456 1456 1457 1457 1457 1457 1458 1458 1459 1459 1460 1461 1462 1463 1464 1464 1465 1466 1466 1466
1458 1459 1459 1459 1459 1459 1459 1459 1459 1459 1458 1458 1458 1457 1457 1457 1457 1457 1457 1457 1456 1456 1456 1456 1456 1456 1456 1456 1457 1457 1458 1458 1459 1460 1460 1461 1462 1463 1463 1463 1464 1464 1464
1456 1456 1457 1457 1457 1457 1457 1457 1457 1457 1457 1457 1457 1457 1457 1457 1457 1457 1457 1457 1456 1456 1456 1456 1456 1456 1456 1456 1457 1457 1458 1458 1459 1459 1460 1461 1461 1462 1462 1462 1462 1462 1461
1453 1454 1454 1454 1455 1455 1455 1455 1456 1456 1456 1456 1456 1457 1457 1457 1457 1457 1457 1457 1457 1457 1457 1457 1457 1457 1457 1458 1458 1458 1459 1459 1460 1460 1460 1460 1460 1460 1460 1460 1460 1459 1459
1451 1452 1452 1452 1452 1453 1453 1454 1454 1455 1455 1456 1456 1456 1457 1457 1457 1457 1457 1457 1458 1458 1458 1458 1458 1458 1458 1459 1459 1459 1459 1460 1460 1460 1460 1460 1459 1459 1458 1458 1457 1456 1455
1449 1449 1450 1450 1450 1451 1452 1453 1453 1454 1455 1455 1456 1456 1457 1457 1458 1458 1458 1458 1458 1459 1459 1459 1460 1460 1460 1460 1460 1460 1460 1460 1460 1459 1459 1458 1458 1457 1456 1455 1454 1453 1452
1447 1447 1448 1448 1449 1450 1451 1451 1452 1453 1454 1455 1456 1457 1457 1458 1458 1458 1459 1459 1459 1460 1460 1461 1461 1461 1461 1461 1461 1460 1460 1459 1459 1458 1458 1457 1456 1455 1454 1453 1452 1451 1450
1445 1445 1446 1447 1448 1448 1449 1450 1451 1453 1454 1455 1456 1457 1458 1458 1459 1459 1460 1460 1461 1461 1461 1461 1461 1462 1461 1461 1461 1460 1459 1458 1458 1457 1456 1455 1454 1453 1451 1450 1449 1448 1447
1443 1444 1445 1445 1446 1447 1448 1449 1451 1452 1453 1455 1456 1457 1458 1458 1459 1460 1460 1461 1461 1461 1462 1462 1462 1462 1461 1461 1460 1459 1458 1457 1456 1455 1454 1453 1452 1450 1449 1448 1446 1445 1444
1441 1442 1443 1444 1445 1446 1447 1448 1450 1451 1453 1454 1455 1457 1458 1458 1459 1460 1461 1461 1461 1462 1462 1462 1462 1461 1461 1460 1459 1458 1457 1456 1455 1453 1452 1451 1449 1448 1446 1445 1444 1442 1441
1439 1440 1441 1442 1443 1444 1446 1447 1449 1451 1452 1454 1455 1456 1458 1459 1459 1460 1461 1461 1461 1462 1462 1461 1461 1461 1460 1459 1458 1457 1455 1454 1452 1451 1450 1448 1447 1445 1444 1442 1441 1439 1438
1437 1438 1439 1440 1441 1442 1444 1446 1448 1449 1451 1453 1454 1456 1457 1458 1459 1460 1460 1461 1461 1461 1461 1461 1460 1459 1459 1457 1456 1455 1453 1452 1450 1449 1447 1446 1444 1442 1441 1439 1438 1436 1435